Weather History for Sedalia, MO

Change the Weather History Date:

Friday, March 15, 2013

  Actual Average Record
Temperature  
Mean Temperature 60 °F 46 °F  
Max Temperature 79 °F 56 °F 80 °F (1977)
Min Temperature 41 °F 35 °F 8 °F (1949)
Degree Days  
Heating Degree Days 5 19  
Month to date heating degree days 402 326  
Since 1 July heating degree days 3840 3943  
Cooling Degree Days 0 0  
Month to date cooling degree days 0 0  
Year to date cooling degree days 1 0  
Growing Degree Days 10 (Base 50)    
Moisture  
Dew Point 43 °F    
Average Humidity 59    
Maximum Humidity 86    
Minimum Humidity 32    
Precipitation  
Precipitation 0.00 in 0.09 in 1.77 in (1982)
Month to date precipitation 1.36 1.23  
Year to date precipitation 6.63 4.83  
Sea Level Pressure  
Sea Level Pressure 29.85 in    
Wind  
Wind Speed 11 mph (SW)    
Max Wind Speed 22 mph    
Max Gust Speed 28 mph    
Visibility 10 miles    
Events      
T = Trace of Precipitation, MM = Missing Value Source: NWS Daily Summary

Daily Weather History Graph

Daily Weather History Graph

Search for Another Location

Airport:

Trip Planner

Search our weather history database for the weather conditions in past years. The results will help you decide how hot, cold, wet, or windy it might be!

Date:

Astronomy

Mar. 15, 2013 Rise Set
Actual Time 7:23 AM CDT 7:20 PM CDT
Civil Twilight 6:57 AM CDT 7:46 PM CDT
Nautical Twilight 6:26 AM CDT 8:17 PM CDT
Astronomical Twilight 5:55 AM CDT 8:48 PM CDT
Moon 9:16 AM CDT (3/15) 11:31 PM CDT (3/15)
Length of Visible Light 12h 49m
Length of Day
11h 56m
Waxing Crescent, 15% of the Moon is Illuminated
Mar 15
Waxing Crescent
Mar 19
First Quarter
Mar 27
Full
Apr 2
Last Quarter
Apr 10
New

Hourly Weather History & Observations

Time (CDT) Temp. Windchill Dew Point Humidity Pressure Visibility Wind Dir Wind Speed Gust Speed Precip Events Conditions
12:53 AM 50.0 °F - 39.9 °F 68% 30.07 in 10.0 mi Calm Calm - N/A   Clear
1:53 AM 52.0 °F - 37.9 °F 59% 30.05 in 10.0 mi Calm Calm - N/A   Clear
2:53 AM 51.1 °F - 37.9 °F 61% 30.04 in 10.0 mi West 4.6 mph - N/A   Clear
3:53 AM 44.1 °F 42.5 °F 37.9 °F 79% 30.01 in 10.0 mi WSW 3.5 mph - N/A   Clear
4:53 AM 45.0 °F 42.6 °F 37.9 °F 76% 29.98 in 10.0 mi SW 4.6 mph - N/A   Clear
5:53 AM 44.1 °F 39.5 °F 37.0 °F 76% 29.98 in 10.0 mi SSW 8.1 mph - N/A   Clear
6:53 AM 41.0 °F 38.0 °F 37.0 °F 86% 29.98 in 10.0 mi SSW 4.6 mph - N/A   Clear
7:53 AM 46.0 °F 39.6 °F 37.9 °F 73% 29.97 in 10.0 mi SW 15.0 mph - N/A   Clear
8:53 AM 50.0 °F - 41.0 °F 71% 29.94 in 10.0 mi SSW 10.4 mph - N/A   Clear
9:53 AM 55.9 °F - 43.0 °F 62% 29.93 in 10.0 mi SW 13.8 mph - N/A   Clear
10:53 AM 62.1 °F - 45.0 °F 53% 29.90 in 10.0 mi SSW 11.5 mph - N/A   Clear
11:53 AM 66.9 °F - 46.0 °F 47% 29.87 in 10.0 mi SW 12.7 mph - N/A   Clear
12:53 PM 72.0 °F - 46.9 °F 41% 29.84 in 10.0 mi SSW 15.0 mph - N/A   Clear
1:53 PM 73.9 °F - 46.9 °F 38% 29.81 in 10.0 mi SW 15.0 mph - N/A   Clear
2:53 PM 75.0 °F - 46.9 °F 37% 29.75 in 10.0 mi SSW 13.8 mph - N/A   Clear
3:53 PM 78.1 °F - 46.9 °F 33% 29.73 in 10.0 mi SW 16.1 mph 25.3 mph N/A   Clear
4:53 PM 77.0 °F - 46.0 °F 33% 29.72 in 10.0 mi SW 15.0 mph - N/A   Clear
5:53 PM 73.9 °F - 46.9 °F 38% 29.71 in 10.0 mi SW 12.7 mph - N/A   Clear
6:53 PM 72.0 °F - 46.9 °F 41% 29.70 in 10.0 mi SW 13.8 mph - N/A   Clear
7:53 PM 69.1 °F - 46.0 °F 44% 29.70 in 10.0 mi SSW 12.7 mph - N/A   Clear
8:53 PM 66.0 °F - 46.9 °F 50% 29.69 in 10.0 mi SSW 11.5 mph - N/A   Clear
9:53 PM 64.9 °F - 48.0 °F 54% 29.68 in 10.0 mi SSW 11.5 mph - N/A   Clear
10:53 PM 64.0 °F - 46.9 °F 54% 29.68 in 10.0 mi SW 11.5 mph - N/A   Clear
11:53 PM 64.9 °F - 46.9 °F 52% 29.68 in 10.0 mi SW 15.0 mph - N/A   Clear